Location: PSU-Greenbush Astrophysical Observatory
(37.5140°N, 94.9880°W)
Time: 00:39:50
(UTC-06:00)

Transit 2A - Pass Details

Date: 29 January 2020
Orbit: 599 x 959 km, 66.7° (Epoch: 27 February)

Event Time Altitude Azimuth Distance (km) Brightness Sun altitude
Rises 03:16:58 0° 344° (NNW) 3,006 - -49.3°
Reaches altitude 10° 03:19:35 10° 359° (N) 2,143 - -48.8°
Maximum altitude 03:23:33 24° 54° (NE) 1,476 - -48.0°
Drops below altitude 10° 03:27:49 10° 108° (ESE) 2,323 - -47.2°
Exits shadow 03:29:38 - 117° (ESE) 2,922 9.4 -46.8°
Sets 03:30:46 0° 121° (ESE) 3,319 9.7 -46.6°
